Lexington Weather

Lexington, Massachusetts, USA

31°F
1/23/2020 10:00am 
  • Lexington Conditions: Clear
  • Temperature: 30.7°F / -0.7°CWarmer 4.5°F than last hour.
  • Dew Point: 20.7°FIncreased 1.7°Fsince last hour.
  • Relative Humidity: 66%Decreased 8.0% since last hour.
  • Wind: Calm, 10-min avg: Calm, gust: 1 mph
  • Barometer: 30.34 in Steady
  • Visibility: 10 miles
  • Snow Today: 0.0 in
  •   

Regional Weather Roundup
for Boston / Norton, MA

        
000
ASUS41 KBOX 220400
RWRBOX

REGIONAL WEATHER ROUNDUP
NATIONAL WEATHER SERVICE BOSTON/NORTON MA
1100 PM EST TUE JAN 21 2020

NOTE:  "FAIR" INDICATES FEW OR NO CLOUDS BELOW 12,000 FEET WITH NO 
SIGNIFICANT WEATHER AND/OR OBSTRUCTIONS TO VISIBILITY.

MAZALL-220500-
EASTERN MASSACHUSETTS
  
CITY           SKY/WX    TMP DP  RH WIND       PRES   REMARKS
BOSTON         MOCLDY    25   4  40 NW3       30.43S                  
BEVERLY        FAIR      12   2  64 CALM      30.42S                  
LAWRENCE       FAIR      14   4  64 CALM      30.43F                  
BEDFORD        FAIR      11   2  67 CALM      30.41F                  
BLUE HILL        N/A     17   2  51 W7        30.37S WCI   8          
NORWOOD        FAIR      12   4  70 CALM      30.43F                  
MARSHFIELD     NOT AVBL                                               
PLYMOUTH       FAIR      11   7  84 CALM      30.43R                  
TAUNTON        FAIR       8   4  83 CALM      30.43S                  
NEW BEDFORD    FAIR      12   8  84 CALM      30.43S                  
$$

MAZALL-220500-
CAPE COD AND THE ISLANDS
  
CITY           SKY/WX    TMP DP  RH WIND       PRES   REMARKS
FALMOUTH       CLEAR     10   5  79 CALM      30.42S                  
HYANNIS        NOT AVBL                                               
CHATHAM        FAIR      20  15  81 NW3       30.42S                  
PROVINCETOWN   FAIR      26  13  57 NW6       30.42S WCI  19          
NANTUCKET      FAIR      24  14  65 CALM      30.41F                  
MARTHAS VNYRD  FAIR      12   4  70 NW3       30.42S                  
$$
 
MAZALL-220500-
CENTRAL AND WESTERN MASSACHUSETTS
  
CITY           SKY/WX    TMP DP  RH WIND       PRES   REMARKS
WORCESTER      FAIR      16  -1  47 W8        30.35S WCI   5          
FITCHBURG      FAIR      11   3  70 CALM      30.40F                  
ORANGE         FAIR       2  -2  83 CALM      30.41F                  
SPRINGFIELD    NOT AVBL                                               
WESTFIELD      NOT AVBL                                               
NORTH ADAMS    CLOUDY     9   2  73 W3        30.42S                  
PITTSFIELD     CLOUDY    19   8  62 W3        30.35S                  
$$
 
RIZALL-220500-
RHODE ISLAND
  
CITY           SKY/WX    TMP DP  RH WIND       PRES   REMARKS
PROVIDENCE     FAIR      17   8  67 NW7       30.44S WCI   8          
NEWPORT        FAIR      16   7  67 CALM      30.42S                  
BLOCK ISLAND   FAIR      24   7  48 N6        30.44S WCI  17          
SMITHFIELD     FAIR      14   2  58 CALM      30.41R                  
WESTERLY       FAIR      20   8  60 CALM      30.44F                  
$$
 
CTZALL-220500-
CONNECTICUT
  
CITY           SKY/WX    TMP DP  RH WIND       PRES   REMARKS
BRADLEY INTL   FAIR      11   1  64 NW3       30.44R                  
HARTFORD       FAIR      17   7  64 CALM      30.46R                  
BRIDGEPORT     FAIR      23   6  48 NW5       30.46S WCI  17          
DANBURY        FAIR      13   6  74 CALM      30.44S                  
GROTON         NOT AVBL                                               
NEW HAVEN      FAIR      23   6  48 N5        30.45S WCI  17          
CHESTER        NOT AVBL                                               
MERIDEN        FAIR      14   7  73 CALM      30.45S                  
WILLIMANTIC    FAIR      10   4  76 CALM      30.45S                  
OXFORD         FAIR      19   7  59 NW3       30.41S                  
$$

MEZ002-015-021-024-NHZ003-005-008-011-012-014-VTZ005-008-220500-
NORTHERN NEW ENGLAND
  
CITY           SKY/WX    TMP DP  RH WIND       PRES   REMARKS
PORTLAND ME    FAIR      15   7  70 CALM      30.39F                  
BANGOR ME      FAIR       9   4  80 SW5       30.37S WCI   1          
CONCORD NH     FAIR      10   2  69 CALM      30.39F                  
MANCHESTER NH  MOCLDY    13   2  61 CALM      30.38F                  
NASHUA NH      FAIR      12   4  70 CALM      30.41F                  
PORTSMOUTH NH  MOCLDY    14  -2  48 CALM      30.39S                  
JAFFREY NH     FAIR      15   2  56 SE5       30.33F WCI   8          
KEENE NH       FAIR       7   3  84 CALM      30.41F                  
BURLINGTON VT  CLOUDY    19   6  57 SW9       30.37S WCI   8          
MT. WASHINGTON FOG        1   1 100 W35         N/A  VSB 1/16WCI -25  
$$

NYZ052-076-220500-
EASTERN NEW YORK
  
CITY           SKY/WX    TMP DP  RH WIND       PRES   REMARKS
ALBANY         CLOUDY    22  11  62 CALM      30.45S                  
NEW YORK CITY  MOCLDY    29   9  43 N7        30.46S WCI  22          
$$
 
ANZALL-220500-
MARINE OBSERVATIONS
  
STATION/POSITION TIME  TEMP    WIND        PRES    VSBY  WAVE
                       AIR SEA DIR/SP/G                  HT/PER
                 (UTC) (F)     (DEG/KT/KT) (MB)    (MI)  (FT/S)
BOSTON BUOY      0250   27 42  300/  8/ 12 1029.6          2/10
BUZZARDS BAY     0300   27     340/  4/  6 1030.8S
NANTUCKET SOUND  0300                        N/A
MASS BAY-STELLWA 0304   26 41  320/ 10/ 14 1028.2S  1 7/8  1/ 5
ISLE OF SHOALS   0300   24     280/ 13/ 15 1029.4F
S OF BLOCK IS    0330      45                N/A           2/10
$$

......................KEY.........................
  SKY/WX - SKY CONDITION/PRESENT WEATHER
  TMP    - TEMPERATURE IN FAHRENHEIT
  DWPT   - DEWPOINT IN FAHRENHEIT
  RH     - RELATIVE HUMIDITY IN PERCENT
  WIND   - DIRECTION AND SPEED IN MPH
  PRES   - MEAN SEA LEVEL PRESSURE IN INCHES OF HG
  WCI    - WIND CHILL INDEX
  VSB    - VISIBILITY IN MILES
  HX     - HEAT INDEX
  TC     - TEMPERATURE IN CELSIUS
  VRB    - VARIABLE WIND DIRECTION
  N/A    - NOT AVAILABLE
  
      

Other recent Regional Weather Roundups

Thu Jan 23, 9:10am

Thu Jan 23, 9:00am

Thu Jan 23, 8:10am

Thu Jan 23, 8:00am

Thu Jan 23, 7:10am

Thu Jan 23, 7:01am

Thu Jan 23, 6:10am

Thu Jan 23, 6:00am

Thu Jan 23, 5:10am

Thu Jan 23, 5:00am

Thu Jan 23, 4:10am

Thu Jan 23, 4:01am

Thu Jan 23, 3:10am

Thu Jan 23, 3:00am

Thu Jan 23, 2:10am

Thu Jan 23, 2:00am

Thu Jan 23, 1:10am

Thu Jan 23, 1:00am

Thu Jan 23, 12:10am

Thu Jan 23, 12:00am

Wed Jan 22, 11:10pm

Wed Jan 22, 11:01pm

Wed Jan 22, 10:10pm

Wed Jan 22, 10:00pm

Wed Jan 22, 9:10pm

Wed Jan 22, 9:00pm

Wed Jan 22, 8:10pm

Wed Jan 22, 8:01pm

Wed Jan 22, 7:10pm

Wed Jan 22, 7:00pm

Wed Jan 22, 6:10pm

Wed Jan 22, 6:01pm

Wed Jan 22, 5:10pm

Wed Jan 22, 5:00pm

Wed Jan 22, 4:10pm

Wed Jan 22, 4:00pm

Wed Jan 22, 3:10pm

Wed Jan 22, 3:00pm

Wed Jan 22, 2:10pm

Wed Jan 22, 2:00pm

Wed Jan 22, 1:10pm

Wed Jan 22, 1:00pm

Wed Jan 22, 12:10pm

Wed Jan 22, 12:00pm

Wed Jan 22, 11:10am

Wed Jan 22, 11:00am

Wed Jan 22, 10:10am

Wed Jan 22, 10:01am

Wed Jan 22, 9:10am

Wed Jan 22, 9:00am

Wed Jan 22, 8:10am

Wed Jan 22, 8:00am

Wed Jan 22, 7:10am

Wed Jan 22, 7:00am

Wed Jan 22, 6:10am

Wed Jan 22, 6:00am

Wed Jan 22, 5:10am

Wed Jan 22, 5:00am

Wed Jan 22, 4:10am

Wed Jan 22, 4:00am

Wed Jan 22, 3:10am

Wed Jan 22, 3:01am

Wed Jan 22, 2:10am

Wed Jan 22, 2:00am

Wed Jan 22, 1:10am

Wed Jan 22, 1:00am

Wed Jan 22, 12:10am

Wed Jan 22, 12:00am

Tue Jan 21, 11:10pm

Tue Jan 21, 10:10pm

Tue Jan 21, 10:00pm

Tue Jan 21, 9:10pm

Tue Jan 21, 9:01pm

Tue Jan 21, 8:10pm

Tue Jan 21, 8:00pm

Tue Jan 21, 7:10pm

Tue Jan 21, 7:00pm

Tue Jan 21, 6:10pm

Tue Jan 21, 6:01pm

Tue Jan 21, 5:10pm

Tue Jan 21, 5:00pm

Tue Jan 21, 4:10pm

Tue Jan 21, 4:00pm

Tue Jan 21, 3:10pm

Tue Jan 21, 3:01pm

Tue Jan 21, 2:10pm

Tue Jan 21, 2:00pm

Tue Jan 21, 1:10pm

Tue Jan 21, 1:00pm

Tue Jan 21, 12:10pm

Tue Jan 21, 12:00pm

Tue Jan 21, 11:10am

Tue Jan 21, 11:00am

Tue Jan 21, 10:10am

Tue Jan 21, 10:00am

Tue Jan 21, 9:10am

Tue Jan 21, 9:00am

Tue Jan 21, 8:10am

Tue Jan 21, 8:00am

Tue Jan 21, 7:10am

Tue Jan 21, 7:00am

Tue Jan 21, 6:10am

Tue Jan 21, 6:00am

Tue Jan 21, 5:10am

Tue Jan 21, 5:00am

Tue Jan 21, 4:10am

Tue Jan 21, 4:00am

Tue Jan 21, 3:10am

Tue Jan 21, 3:00am

Tue Jan 21, 2:10am

Tue Jan 21, 2:01am

Tue Jan 21, 1:10am

Tue Jan 21, 1:00am

Tue Jan 21, 12:10am

Tue Jan 21, 12:00am

Mon Jan 20, 11:10pm

Mon Jan 20, 11:00pm

Mon Jan 20, 10:10pm

Mon Jan 20, 10:00pm

Mon Jan 20, 9:10pm

Mon Jan 20, 9:00pm

Mon Jan 20, 8:10pm

Mon Jan 20, 8:00pm

Mon Jan 20, 7:10pm

Mon Jan 20, 7:00pm

Mon Jan 20, 6:10pm

Mon Jan 20, 6:00pm

Mon Jan 20, 5:10pm

Mon Jan 20, 5:00pm

Mon Jan 20, 4:10pm

Mon Jan 20, 4:01pm

Mon Jan 20, 3:10pm

Mon Jan 20, 3:00pm

Mon Jan 20, 2:10pm

Mon Jan 20, 2:00pm

Mon Jan 20, 1:10pm

Mon Jan 20, 1:00pm

Mon Jan 20, 12:10pm

Mon Jan 20, 12:00pm

Mon Jan 20, 11:10am

Mon Jan 20, 11:00am

Mon Jan 20, 10:10am

Mon Jan 20, 10:00am

Meta data:

ID: 19c22ea0-1892-4a22-8632-d8d6380d6696
Link: https://api.weather.gov/products/19c22ea0-1892-4a22-8632-d8d6380d6696